Location: Bandys
(35.4750°N, 81.0830°W)
Time: 16:32:34
(UTC-04:00)

Daily predictions for brighter satellites

Satellite Brightness Start Highest point End
(mag) Time Altitude Azimuth Time Altitude Azimuth Time Altitude Azimuth
Cosmos 1709 Rocket 4.2 20:47:49 10° N 20:53:57 53° E 20:59:57 10° SSE
CZ-2D R/B 3.2 20:50:16 10° SSE 20:54:05 72° ENE 20:57:53 10° N
Envisat 3.7 20:50:41 10° SE 20:55:16 36° ENE 20:59:53 10° N
Cosmos 44 4.3 20:51:49 10° NW 20:55:51 39° WSW 20:59:55 10° S
Iridium 4 Rocket 3.7 20:51:44 10° N 20:56:43 56° E 21:02:06 10° SSE
ASTRO E2 3.1 20:55:05 10° WSW 20:58:54 45° S 21:02:44 10° ESE
H-2A R/B 4.0 21:04:25 10° S 21:07:55 40° W 21:11:26 10° NNW
Tiangong 2 1.7 21:05:40 10° SW 21:08:37 36° SSE 21:11:35 10° ENE
Cosmos 1975 Rocket 4.1 21:05:05 10° SSW 21:09:26 51° W 21:13:48 10° N
Aureole 1 Rocket 4.2 21:08:20 10° SE 21:10:23 15° ESE 21:12:16 10° ENE
NOSS 2-2 (E) 3.3 21:07:21 10° SSW 21:11:16 65° ESE 21:15:37 10° NE
Cosmos 1538 Rocket 4.2 21:11:51 10° SSW 21:16:59 75° WNW 21:22:10 10° NNE
ISS -2.8 21:18:06 10° S 21:20:52 25° SE 21:23:38 10° ENE
USA 186 2.3 21:18:16 10° S 21:21:29 60° W 21:24:39 10° NNW
CZ-4B DEB 4.5 21:21:13 10° SSE 21:24:43 74° ENE 21:28:15 10° N
Cosmos 2315 Rocket 4.3 21:18:56 10° S 21:25:10 75° W 21:31:30 10° N
Cosmos 1666 4.2 21:22:29 10° NNE 21:25:18 20° ENE 21:26:56 15° ESE
Cosmos 923 Rocket 4.1 21:20:24 10° S 21:25:35 56° ESE 21:30:47 10° NNE
OAO 2 Rocket 3.2 21:20:42 10° WSW 21:25:36 69° SSE 21:30:35 10° E
Cosmos 1536 Rocket 3.4 21:26:45 10° S 21:31:04 79° E 21:35:23 10° N
CZ-3A R/B 2.4 21:25:18 10° SSW 21:31:16 27° SE 21:33:08 16° E
Cosmos 1437 2.6 21:30:04 10° S 21:33:15 85° E 21:36:30 10° N
CZ-4B DEB 2.6 21:31:50 18° SSE 21:33:54 62° ENE 21:36:52 10° N
Helios 1A 3.0 21:29:44 10° SSE 21:33:57 89° E 21:38:12 10° NNW
Cosmos 2184 Rocket 4.4 21:27:59 10° N 21:34:02 45° E 21:38:55 15° SSE
Cosmos 2074 Rocket 4.3 21:28:15 10° N 21:34:15 47° E 21:39:14 15° SSE
Meteor 1-19 Rocket 4.3 21:33:43 10° S 21:39:29 65° E 21:45:11 10° NNE
SJ-11-01 4.2 21:36:38 11° SSE 21:41:04 86° E 21:45:47 10° NNW
Meteor 1-29 3.0 21:38:17 10° N 21:41:40 75° WNW 21:45:00 10° SSW
YAOGAN 6 2.7 21:42:06 23° SE 21:44:00 51° ENE 21:47:25 10° N
SAR-Lupe-4 3.6 21:41:17 15° S 21:44:12 80° WSW 21:47:47 10° NNW
ERS-1 Rocket 3.4 21:41:29 19° SE 21:44:43 45° ENE 21:49:29 10° N
Cosmos 1656 Rocket 3.8 21:40:54 10° NNW 21:46:17 59° ENE 21:49:49 22° SE
Cosmos 2369 Rocket 4.0 21:42:22 10° NW 21:47:06 28° WSW 21:51:50 10° SSW
Cosmos 405 Rocket 2.6 21:46:32 10° S 21:50:14 89° WNW 21:54:03 10° N
Resurs 01 Rocket 4.0 21:49:44 10° SW 21:53:01 20° W 21:56:20 10° NW
NOSS 2-2 (D) 4.4 21:50:29 10° SW 21:54:20 49° NW 21:58:36 10° NNE
H-2A R/B 3.6 21:52:51 16° E 21:54:30 18° ENE 21:57:48 10° NNE
Cosmos 2112 Rocket 3.9 21:53:11 10° S 21:58:23 74° ESE 22:03:36 10° NNE
Cosmos 192 4.3 21:54:18 10° S 21:59:06 59° ESE 22:03:55 10° NNE
Cosmos 1975 4.2 21:55:31 10° NNW 21:59:17 37° W 22:03:03 10° SSW
Cosmos 1025 Rocket 3.4 21:58:34 30° SE 22:00:04 41° E 22:04:05 10° NNE
Cosmos 1943 Rocket 3.3 21:57:05 10° NW 22:02:16 40° WSW 22:07:20 10° S
Cosmos 1441 Rocket 3.1 22:01:18 30° SSE 22:02:59 63° E 22:06:42 10° NNE
CENTAUR R/B 3.2 21:55:41 10° NNW 22:03:45 80° ENE 22:09:18 24° SE
Nadezhda 1 Rocket 4.0 21:59:51 11° S 22:05:59 75° E 22:12:23 10° N
NOAA 11 4.2 22:07:47 28° SSE 22:10:38 64° ENE 22:16:01 10° N
Cosmos 1939 Rocket 4.1 22:08:04 13° SSW 22:11:08 35° W 22:14:42 10° NNW
COSMOS 2406 3.8 22:09:15 10° SW 22:14:54 59° WNW 22:20:33 10° NNE
SL-08 RB Rocket 4.4 22:14:43 32° E 22:15:38 36° ENE 22:19:43 10° N
ARGOS 3.5 22:13:33 32° SE 22:15:42 50° ENE 22:20:56 10° N
SL-27 R/B 2.6 22:14:28 22° SSW 22:16:44 77° WNW 22:20:24 10° NNE
Cosmos 2154 Rocket 4.2 22:11:29 10° N 22:17:42 54° E 22:20:26 32° SE
COSMOS 2455 3.8 22:12:39 10° NW 22:18:16 41° WSW 22:22:27 17° S
Cosmos 374 Rocket 4.2 22:15:47 10° NNW 22:19:32 87° ENE 22:20:28 51° SE
Cosmos 1680 Rocket 4.2 22:16:54 10° SSW 22:22:01 55° WNW 22:27:09 10° N
SPOT 5 2.8 22:23:05 46° ESE 22:23:55 54° ENE 22:28:08 10° N
H-2A R/B 4.0 22:24:49 17° ENE 22:25:03 17° ENE 22:27:54 10° NNE
Cosmos 2082 Rocket 3.5 22:28:03 22° E 22:28:03 22° E 22:31:17 10° NE
Cosmos 2056 Rocket 4.3 22:23:30 10° N 22:28:12 34° ENE 22:29:09 31° E
Cosmos 1743 4.3 22:27:00 10° NNW 22:30:28 31° W 22:32:37 18° SW
Cosmos 405 2.9 22:31:21 10° N 22:34:56 83° W 22:34:56 83° W
Terra 3.2 22:37:12 24° ENE 22:37:23 24° ENE 22:41:10 10° NNE
ASTRO E2 3.8 22:35:28 10° WSW 22:38:11 32° SW 22:38:11 32° SW
ASTEX 1 4.2 22:36:30 22° SSW 22:39:24 46° W 22:44:08 10° NNW
MetOp-B 4.3 22:40:01 37° S 22:42:07 70° WSW 22:47:29 10° NNW
Cosmos 967 Rocket 4.3 22:38:24 21° SSW 22:42:39 71° ESE 22:48:54 10° NNE
Meteor 2-19 Rocket 4.5 22:36:36 10° N 22:42:40 64° E 22:44:22 46° SE
SPOT 1/Viking Rocket 3.5 22:44:16 54° SE 22:45:16 68° ENE 22:50:24 10° N
Tiangong 2 2.5 22:42:23 10° W 22:45:22 37° NNW 22:45:36 36° N
Cosmos 2341 Rocket 4.0 22:39:29 10° N 22:45:49 67° E 22:47:39 46° SE
Cosmos 1437 Rocket 2.8 22:46:00 10° N 22:49:25 68° NNE 22:49:25 68° NNE
Okean 2 3.8 22:50:04 48° SW 22:50:49 58° W 22:54:51 10° N
Cosmos 1697 Rocket 4.3 22:51:26 10° N 22:55:27 20° ENE 22:56:25 19° ENE
ISS -1.6 22:54:26 10° W 22:57:17 27° NW 23:00:09 10° NNE
Cosmos 1892 Rocket 3.6 23:01:37 76° WSW 23:01:45 77° W 23:06:11 10° N
Cosmos 2218 Rocket 4.4 22:56:17 10° N 23:02:07 44° E 23:02:38 43° E
DNEPR-1 R/B 4.2 23:00:23 10° NW 23:04:33 47° WSW 23:04:38 47° WSW
Cosmos 1371 Rocket 4.0 23:02:13 10° NNW 23:07:32 73° WSW 23:08:06 66° SSW
Cosmos 2228 3.6 23:03:31 10° N 23:06:54 47° NE 23:06:54 47° NE
OAO 2 Rocket 3.2 23:05:22 10° W 23:10:00 77° WSW 23:10:00 77° WSW
Cosmos 1833 Rocket 3.0 23:11:23 49° ENE 23:11:23 49° ENE 23:16:03 10° NNE
Cosmos 921 Rocket 3.5 23:09:08 10° N 23:12:53 56° NNE 23:12:53 56° NNE
Cosmos 1066 Rocket 4.0 23:15:05 72° E 23:15:05 72° E 23:20:36 10° NNE
Cosmos 2181 Rocket 4.1 23:13:08 42° SSW 23:15:23 72° W 23:21:43 10° N
Cosmos 1656 4.3 23:11:06 10° N 23:16:13 40° ENE 23:16:17 40° ENE
Cosmos 1606 Rocket 4.3 23:14:52 10° NNW 23:18:50 45° W 23:18:50 45° W
SL-19 R/B 4.0 23:17:44 10° NNE 23:22:49 77° ENE 23:22:49 77° ENE
CZ-4 R/B 4.3 23:22:29 10° NNE 23:26:31 54° NE 23:26:31 54° NE
Cosmos 1809 Rocket 4.3 23:26:46 10° N 23:32:51 73° E 23:32:56 73° E
USA 267 3.1 23:26:54 10° NE 23:33:27 73° SE 23:34:03 69° S
H-2A R/B 2.7 23:33:29 43° W 23:33:31 43° W 23:38:17 10° NNW
CARTOSAT-1 4.4 23:36:39 48° NNW 23:36:39 48° NNW 23:39:49 10° NNW
Cosmos 2058 Rocket 4.0 23:32:19 10° NNW 23:35:51 44° WNW 23:35:51 44° WNW
Cosmos 1980 Rocket 3.5 23:37:39 10° N 23:42:26 28° ENE 23:42:26 28° ENE
SeaSat 1 4.4 23:46:40 19° NE 23:46:42 19° NE 23:50:07 10° N
Cosmos 864 Rocket 4.4 23:45:14 10° N 23:51:33 86° W 23:51:33 86° W
